sat.trackr.live / text

‹ back to catalog

STARLINK-36164

NORAD 67127 · 2025-299AB

PAYLOAD ACTIVE UNKNOWN

§ Identity

Operator
Country
US
Launch date
2025-12-15
Launch site
AFETR
Launch vehicle
Mass (kg)
RCS (m²)

Purposes: comms

External: N2YO · Heavens-Above · Gunter

§ Orbital elements

Epoch: 2026-09-20T01:03:15.915744Z

Period
94.27 min
Inclination
42.9997°
Eccentricity
0.0001384
Mean motion
15.27591629 rev/d
Perigee alt
482.1 km
Apogee alt
484.0 km
Semi-major
6,861.2 km
B*
4.1221e-4
RAAN
151.0782°
Arg perigee
278.3974°
Mean anomaly
81.6720°
Rev number
4,284

§ Raw data

STARLINK-361641 67127U 25299AB  26263.04393421  .00011102  00000+0  41221-3 0  99922 67127  42.9997 151.0782 0001384 278.3974  81.6720 15.27591629 42844

JSON: /api/v1/satellites/67127 · /tle

For live sub-satellite position, see the globe view (requires WebGL).

§ Visibility from observer

Set your observer location to see the next 7 days of passes ≥ 10°. The values pass through the URL so the page stays shareable.

No JS? Fill the form by hand. The geolocation button needs JavaScript.